This demonstration page uses our WeatherBlox Daily Observations layout. Learn more.

Left ArrowRight Arrow

Hourly Observations for March 28, 2021

Temp ( °F °C ) Dew Point ( °F °C ) Humidity (%) Winds ( mph kmh ) Pressure ( in mb ) Visibility ( mi km ) Precip ( " mm )
12:15 am 00:15 Clear 35 1.9 28 -2.5 73 73 NNW 3 6 30.30 1026 10 16 N/A
12:35 am 00:35 Clear 33 0.6 28 -2.5 80 80 N N/A 30.32 1027 10 16 N/A
12:55 am 00:55 Clear 33 0.6 28 -2.4 81 81 WNW 3 6 30.32 1027 10 16 N/A
1:15 am 01:15 Clear 33 0.3 28 -2.1 84 84 NW 3 6 30.31 1027 10 16 N/A
1:35 am 01:35 Clear 32 undefined 28 -2.3 85 85 WNW 3 6 30.33 1027 10 16 N/A
1:55 am 01:55 Clear 32 0.2 28 -2.2 84 84 NW 6 9 30.32 1027 10 16 N/A
2:15 am 02:15 Clear 31 -0.4 28 -2.5 86 86 NW 5 7 30.33 1027 10 16 N/A
2:35 am 02:35 Clear 30 -0.9 27 -2.8 87 87 WNW 5 7 30.32 1027 10 16 N/A
2:55 am 02:55 Clear 31 -0.7 28 -2.4 88 88 W 3 6 30.32 1027 10 16 N/A
3:15 am 03:15 Clear 32 undefined 28 -2.2 85 85 W 5 7 30.32 1027 10 16 N/A
3:35 am 03:35 Clear 31 -0.3 28 -2.3 87 87 W 3 6 30.32 1027 10 16 N/A
3:55 am 03:55 Clear 31 -0.4 28 -2.2 88 88 W 5 7 30.32 1027 10 16 N/A
4:15 am 04:15 Clear 30 -1 27 -2.8 88 88 W 7 11 30.33 1027 10 16 N/A
4:35 am 04:35 Clear 31 -0.4 28 -2.4 87 87 W 7 11 30.32 1027 10 16 N/A
4:55 am 04:55 Clear 33 0.5 30 -1.3 88 88 W 9 15 30.31 1026 10 16 N/A
5:15 am 05:15 Clear 33 0.6 29 -1.5 86 86 W 7 11 30.31 1026 10 16 N/A
5:35 am 05:35 Clear 33 0.4 29 -1.8 85 85 W 7 11 30.31 1026 10 16 N/A
5:55 am 05:55 Clear 34 1 29 -1.5 84 84 W 9 15 30.31 1026 10 16 N/A
6:15 am 06:15 Clear 33 0.5 29 -1.6 86 86 W 8 13 30.31 1026 10 16 N/A
6:35 am 06:35 Clear 32 0.1 29 -1.9 87 87 W 6 9 30.32 1027 10 16 N/A
6:55 am 06:55 Clear 31 -0.4 28 -2.4 87 87 WSW 6 9 30.33 1027 10 16 N/A
7:15 am 07:15 Clear 32 undefined 28 -2 87 87 WSW 8 13 30.33 1027 10 16 N/A
7:35 am 07:35 Sunny 32 0.1 29 -1.8 87 87 W 10 17 30.32 1027 10 16 N/A
7:55 am 07:55 Sunny 32 0.2 29 -1.7 87 87 W 8 13 30.32 1027 10 16 N/A
8:15 am 08:15 Sunny 34 0.9 30 -1.3 85 85 W 7 11 30.33 1027 10 16 N/A
8:35 am 08:35 Sunny 35 1.8 31 -0.7 84 84 W 6 9 30.32 1027 10 16 N/A
8:55 am 08:55 Sunny 37 2.8 32 -0.2 81 81 W 6 9 30.31 1026 10 16 N/A
9:15 am 09:15 Sunny 40 4.2 32 0.1 75 75 W 7 11 30.30 1026 10 16 N/A
9:35 am 09:35 Sunny 42 5.7 34 0.9 72 72 W 8 13 30.28 1025 10 16 N/A
9:55 am 09:55 Sunny 43 6.3 34 0.9 69 69 W 6 9 30.28 1025 10 16 N/A
10:15 am 10:15 Sunny 45 7.2 33 0.8 64 64 WSW 6 9 30.27 1025 10 16 N/A
10:35 am 10:35 Sunny 46 7.8 33 0.7 61 61 W 7 11 30.26 1025 10 16 N/A
10:55 am 10:55 Sunny 48 9.1 34 1.3 58 58 W 8 13 30.24 1024 10 16 N/A
11:15 am 11:15 Sunny 50 10.1 35 1.6 56 56 W 7 11 30.23 1024 10 16 N/A
11:35 am 11:35 Sunny 53 11.7 34 1.3 49 49 W 10 17 30.21 1023 10 16 N/A
11:55 am 11:55 Sunny 54 12.2 35 1.4 48 48 SW 6 9 30.19 1022 10 16 N/A
12:15 pm 12:15 Sunny 56 13.2 34 1.2 44 44 SW 9 15 30.17 1022 10 16 N/A
12:35 pm 12:35 Sunny 58 14.4 34 1 40 40 WSW 9 15 30.15 1021 10 16 N/A
12:55 pm 12:55 Sunny 58 14.7 33 0.5 38 38 SW 12 19 30.13 1020 10 16 N/A
1:15 pm 13:15 Sunny 60 15.5 33 0.4 36 36 SSW 13 20 30.11 1020 10 16 N/A
1:35 pm 13:35 Sunny 62 16.5 33 0.5 34 34 SW 14 22 30.09 1019 10 16 N/A
1:55 pm 13:55 Sunny 63 17.1 32 undefined 32 32 SW 14 22 30.07 1018 10 16 N/A
2:15 pm 14:15 Sunny 64 17.9 30 -1.3 27 27 SW 14 22 30.05 1018 10 16 N/A
2:35 pm 14:35 Sunny 66 18.7 30 -1.1 26 26 SW 13 20 30.02 1017 10 16 N/A
2:55 pm 14:55 Sunny 66 18.8 30 -1.3 26 26 SW 17 28 30.01 1016 10 16 N/A
3:15 pm 15:15 Sunny 67 19.5 29 -1.5 24 24 SW 13 20 29.99 1016 10 16 N/A
3:35 pm 15:35 Sunny 68 20 28 -2.2 22 22 SW 15 24 29.98 1015 10 16 N/A
3:55 pm 15:55 Sunny 69 20.5 28 -2.3 22 22 WSW 20 31 29.95 1014 10 16 N/A
4:15 pm 16:15 Sunny 69 20.7 27 -2.7 21 21 W 21 33 29.94 1014 10 16 N/A
4:35 pm 16:35 Sunny 69 20.6 28 -2.5 21 21 SW 10 17 29.93 1014 10 16 N/A
4:55 pm 16:55 Sunny 70 21 26 -3.2 19 19 WSW 16 26 29.92 1013 10 16 N/A
5:15 pm 17:15 Sunny 70 21.2 25 -3.7 19 19 W 20 31 29.91 1013 10 16 N/A
5:35 pm 17:35 Sunny 71 21.5 27 -3 19 19 WSW 14 22 29.89 1012 10 16 N/A
5:55 pm 17:55 Sunny 71 21.5 25 -4 18 18 WSW 16 26 29.89 1012 10 16 N/A
6:15 pm 18:15 Sunny 71 21.5 25 -4 18 18 WSW 17 28 29.88 1012 10 16 N/A
6:35 pm 18:35 Sunny 71 21.4 24 -4.5 17 17 WSW 10 17 29.88 1012 10 16 N/A
6:55 pm 18:55 Sunny 70 21.1 25 -4.1 18 18 SW 13 20 29.88 1012 10 16 N/A
7:15 pm 19:15 Sunny 69 20.4 26 -3.2 20 20 W 8 13 29.88 1012 10 16 N/A
7:35 pm 19:35 Sunny 66 18.7 27 -2.7 23 23 WSW 6 9 29.89 1012 10 16 N/A
7:55 pm 19:55 Sunny 64 17.5 29 -1.9 27 27 SW 5 7 29.90 1012 10 16 N/A
8:15 pm 20:15 Clear 62 16.4 29 -1.5 30 30 SSW 8 13 29.90 1012 10 16 N/A
8:35 pm 20:35 Clear 60 15.6 29 -1.5 31 31 SSW 8 13 29.90 1013 10 16 N/A
8:55 pm 20:55 Clear 58 14.3 30 -1.3 34 34 SSW 7 11 29.92 1013 10 16 N/A
9:15 pm 21:15 Clear 56 13.6 29 -1.7 35 35 SSW 8 13 29.92 1013 10 16 N/A
9:35 pm 21:35 Clear 56 13.3 30 -1.3 37 37 SW 6 9 29.92 1013 10 16 N/A
9:55 pm 21:55 Clear 55 12.9 30 -1.3 38 38 SSW 7 11 29.93 1013 10 16 N/A
10:15 pm 22:15 Clear 56 13.2 29 -1.7 36 36 SW 10 17 29.91 1013 10 16 N/A
10:35 pm 22:35 Clear 58 14.4 28 -2.1 32 32 SW 10 17 29.90 1013 10 16 N/A
10:55 pm 22:55 Clear 55 12.8 28 -2 36 36 SW 9 15 29.91 1013 10 16 N/A
11:15 pm 23:15 Clear 54 12.4 28 -2 37 37 SW 8 13 29.90 1013 10 16 N/A
11:35 pm 23:35 Clear 53 11.6 29 -1.6 40 40 SSW 13 20 29.90 1012 10 16 N/A
11:55 pm 23:55 Clear 53 11.9 29 -1.5 40 40 SW 10 17 29.90 1012 10 16 N/A

Powered by AerisWeather